• In Czech Republic
  • List of Countries
  • For 7 days
  • Water Temperature
  • Satellite Maps
  • Weather Map
  • Weather Widgets
  • user-avatar
    Login

    Hourly Weather Gaborone

    Today, 21 July, Saturday

    Time Temperature Precipitation Wind Pressure Humidity
    00:00 +12°C° 0 mm 1 mps 683 mmHg 44%
    01:00 +12°C° 0 mm 1 mps 683 mmHg 46%
    02:00 +11°C° 0 mm 1 mps 683 mmHg 47%
    03:00 +11°C° 0 mm 1 mps 683 mmHg 50%
    04:00 +11°C° 0 mm 1 mps 683 mmHg 52%
    05:00 +10°C° 0 mm 1 mps 683 mmHg 55%
    06:00 +10°C° 0 mm 1 mps 683 mmHg 56%
    07:00 +11°C° 0 mm 1 mps 683 mmHg 57%
    08:00 +11°C° 0 mm 1 mps 684 mmHg 59%
    09:00 +13°C° 0 mm 2 mps 684 mmHg 54%
    10:00 +14°C° 0 mm 3 mps 685 mmHg 50%
    11:00 +17°C° 0 mm 3 mps 685 mmHg 45%
    12:00 +19°C° 0 mm 4 mps 685 mmHg 41%
    13:00 +20°C° 0 mm 4 mps 684 mmHg 36%
    14:00 +21°C° 0 mm 4 mps 684 mmHg 31%
    15:00 +21°C° 0 mm 3 mps 684 mmHg 30%
    16:00 +21°C° 0 mm 3 mps 683 mmHg 29%
    17:00 +20°C° 0 mm 3 mps 683 mmHg 29%
    18:00 +19°C° 0 mm 2 mps 683 mmHg 32%
    19:00 +17°C° 0 mm 2 mps 683 mmHg 36%
    20:00 +16°C° 0 mm 1 mps 683 mmHg 39%
    21:00 +15°C° 0 mm 1 mps 683 mmHg 41%
    22:00 +14°C° 0 mm 1 mps 684 mmHg 44%
    23:00 +14°C° 0 mm 1 mps 684 mmHg 46%

    Tomorrow, 22 July, Sunday

    Time Temperature Precipitation Wind Pressure Humidity
    00:00 +13°C° 0 mm 1 mps 684 mmHg 49%
    01:00 +13°C° 0 mm 1 mps 684 mmHg 53%
    02:00 +12°C° 0 mm 1 mps 684 mmHg 56%
    03:00 +12°C° 0 mm 1 mps 684 mmHg 60%
    04:00 +11°C° 0 mm 1 mps 684 mmHg 64%
    05:00 +11°C° 0 mm 1 mps 684 mmHg 68%
    06:00 +11°C° 0 mm 1 mps 684 mmHg 69%
    07:00 +11°C° 0 mm 1 mps 684 mmHg 70%
    08:00 +12°C° 0 mm 1 mps 685 mmHg 72%
    09:00 +14°C° 0 mm 2 mps 685 mmHg 64%
    10:00 +16°C° 0 mm 3 mps 686 mmHg 56%
    11:00 +19°C° 0 mm 4 mps 687 mmHg 48%
    12:00 +20°C° 0 mm 4 mps 686 mmHg 42%
    13:00 +21°C° 0 mm 4 mps 686 mmHg 36%
    14:00 +22°C° 0 mm 4 mps 685 mmHg 29%
    15:00 +22°C° 0 mm 4 mps 685 mmHg 29%
    16:00 +22°C° 0 mm 3 mps 685 mmHg 28%
    17:00 +22°C° 0 mm 3 mps 684 mmHg 27%
    18:00 +20°C° 0 mm 2 mps 684 mmHg 30%
    19:00 +18°C° 0 mm 2 mps 684 mmHg 34%
    20:00 +18°C° 0 mm 1 mps 684 mmHg 37%
    21:00 +16°C° 0 mm 1 mps 685 mmHg 39%
    22:00 +15°C° 0 mm 1 mps 685 mmHg 41%
    23:00 +15°C° 0 mm 1 mps 685 mmHg 43%

    Day after tomorrow, 23 July, Monday

    Time Temperature Precipitation Wind Pressure Humidity
    00:00 +14°C° 0 mm 1 mps 685 mmHg 49%
    01:00 +14°C° 0 mm 1 mps 685 mmHg 54%
    02:00 +13°C° 0 mm 1 mps 685 mmHg 60%
    03:00 +12°C° 0 mm 1 mps 685 mmHg 66%
    04:00 +12°C° 0 mm 1 mps 685 mmHg 72%
    05:00 +11°C° 0 mm 1 mps 684 mmHg 79%
    06:00 +12°C° 0 mm 1 mps 685 mmHg 80%
    07:00 +12°C° 0 mm 1 mps 685 mmHg 82%
    08:00 +12°C° 0 mm 2 mps 686 mmHg 83%
    09:00 +13°C° 0 mm 3 mps 686 mmHg 71%
    10:00 +17°C° 0 mm 3 mps 687 mmHg 59%
    11:00 +19°C° 0 mm 4 mps 687 mmHg 47%
    12:00 +20°C° 0 mm 4 mps 687 mmHg 41%
    13:00 +21°C° 0 mm 4 mps 686 mmHg 35%
    14:00 +23°C° 0 mm 4 mps 686 mmHg 29%
    15:00 +22°C° 0 mm 4 mps 685 mmHg 28%
    16:00 +22°C° 0 mm 3 mps 685 mmHg 28%
    17:00 +22°C° 0 mm 3 mps 684 mmHg 28%
    18:00 +20°C° 0 mm 3 mps 684 mmHg 31%
    19:00 +19°C° 0 mm 2 mps 685 mmHg 34%
    20:00 +17°C° 0 mm 2 mps 685 mmHg 37%
    21:00 +16°C° 0 mm 1 mps 685 mmHg 40%
    22:00 +16°C° 0 mm 1 mps 685 mmHg 43%
    23:00 +15°C° 0 mm 1 mps 685 mmHg 46%

    24 July, Tuesday

    Time Temperature Precipitation Wind Pressure Humidity
    00:00 +14°C° 0 mm 1 mps 685 mmHg 51%
    01:00 +14°C° 0 mm 1 mps 685 mmHg 56%
    02:00 +13°C° 0 mm 1 mps 684 mmHg 61%
    03:00 +13°C° 0 mm 1 mps 684 mmHg 64%
    04:00 +12°C° 0 mm 1 mps 684 mmHg 68%
    05:00 +12°C° 0 mm 1 mps 684 mmHg 71%
    06:00 +12°C° 0 mm 1 mps 685 mmHg 71%
    07:00 +12°C° 0 mm 1 mps 685 mmHg 70%
    08:00 +13°C° 0 mm 1 mps 686 mmHg 70%
    09:00 +15°C° 0 mm 1 mps 686 mmHg 62%
    10:00 +17°C° 0 mm 2 mps 686 mmHg 55%
    11:00 +19°C° 0 mm 3 mps 687 mmHg 47%
    12:00 +20°C° 0 mm 3 mps 686 mmHg 41%
    13:00 +21°C° 0 mm 3 mps 685 mmHg 35%
    14:00 +22°C° 0 mm 3 mps 684 mmHg 30%
    15:00 +22°C° 0 mm 3 mps 684 mmHg 29%
    16:00 +23°C° 0 mm 2 mps 683 mmHg 28%
    17:00 +23°C° 0 mm 2 mps 683 mmHg 28%
    18:00 +20°C° 0 mm 2 mps 683 mmHg 31%
    19:00 +20°C° 0 mm 1 mps 683 mmHg 35%
    20:00 +16°C° 0 mm 0 mps 683 mmHg 38%
    21:00 +16°C° 0 mm 0 mps 683 mmHg 40%
    22:00 +15°C° 0 mm 0 mps 683 mmHg 41%
    23:00 +15°C° 0 mm 0 mps 683 mmHg 43%

    25 July, Wednesday

    Time Temperature Precipitation Wind Pressure Humidity
    00:00 +14°C° 0 mm 0 mps 683 mmHg 44%
    01:00 +14°C° 0 mm 0 mps 682 mmHg 46%
    02:00 +13°C° 0 mm 0 mps 682 mmHg 48%
    03:00 +13°C° 0 mm 0 mps 682 mmHg 50%
    04:00 +12°C° 0 mm 0 mps 682 mmHg 52%
    05:00 +12°C° 0 mm 0 mps 682 mmHg 54%
    06:00 +12°C° 0 mm 0 mps 682 mmHg 53%
    07:00 +12°C° 0 mm 0 mps 682 mmHg 53%
    08:00 +13°C° 0 mm 0 mps 683 mmHg 52%
    09:00 +16°C° 0 mm 1 mps 683 mmHg 46%
    10:00 +20°C° 0 mm 1 mps 683 mmHg 40%
    11:00 +21°C° 0 mm 2 mps 684 mmHg 33%
    12:00 +23°C° 0 mm 2 mps 683 mmHg 30%
    13:00 +24°C° 0 mm 2 mps 682 mmHg 26%
    14:00 +25°C° 0 mm 2 mps 682 mmHg 22%
    15:00 +25°C° 0 mm 1 mps 682 mmHg 22%
    16:00 +25°C° 0 mm 1 mps 681 mmHg 22%
    17:00 +25°C° 0 mm 1 mps 681 mmHg 22%
    18:00 +23°C° 0 mm 1 mps 681 mmHg 25%
    19:00 +22°C° 0 mm 1 mps 681 mmHg 28%
    20:00 +20°C° 0 mm 1 mps 681 mmHg 31%
    21:00 +17°C° 0 mm 0 mps 681 mmHg 32%
    22:00 +17°C° 0 mm 0 mps 681 mmHg 33%
    23:00 +16°C° 0 mm 0 mps 681 mmHg 34%

    26 July, Thursday

    Time Temperature Precipitation Wind Pressure Humidity
    00:00 +15°C° 0 mm 0 mps 680 mmHg 35%
    01:00 +15°C° 0 mm 0 mps 680 mmHg 36%
    02:00 +14°C° 0 mm 0 mps 680 mmHg 38%
    03:00 +14°C° 0 mm 0 mps 680 mmHg 39%
    04:00 +13°C° 0 mm 0 mps 680 mmHg 40%
    05:00 +13°C° 0 mm 0 mps 679 mmHg 41%
    06:00 +13°C° 0 mm 0 mps 680 mmHg 40%
    07:00 +14°C° 0 mm 0 mps 680 mmHg 39%
    08:00 +14°C° 0 mm 0 mps 681 mmHg 39%
    09:00 +19°C° 0 mm 1 mps 681 mmHg 33%
    10:00 +22°C° 0 mm 1 mps 682 mmHg 28%
    11:00 +24°C° 0 mm 1 mps 682 mmHg 23%
    12:00 +25°C° 0 mm 1 mps 682 mmHg 21%
    13:00 +26°C° 0 mm 1 mps 681 mmHg 19%
    14:00 +27°C° 0 mm 2 mps 680 mmHg 17%
    15:00 +27°C° 0 mm 2 mps 680 mmHg 17%
    16:00 +26°C° 0 mm 2 mps 680 mmHg 17%
    17:00 +26°C° 0 mm 2 mps 680 mmHg 17%
    18:00 +24°C° 0 mm 1 mps 680 mmHg 19%
    19:00 +23°C° 0 mm 1 mps 679 mmHg 21%
    20:00 +21°C° 0 mm 1 mps 679 mmHg 24%
    21:00 +20°C° 0 mm 1 mps 679 mmHg 24%
    22:00 +19°C° 0 mm 1 mps 680 mmHg 25%
    23:00 +19°C° 0 mm 1 mps 680 mmHg 26%
    Show more